sat.trackr.live / text

‹ back to catalog

STARLINK-4102

NORAD 53143 · 2022-083M

PAYLOAD ACTIVE UNKNOWN

§ Identity

Operator
Country
US
Launch date
2022-07-17
Launch site
AFETR
Launch vehicle
Mass (kg)
RCS (m²)

Purposes: comms

External: N2YO · Heavens-Above · Gunter

§ Orbital elements

Epoch: 2026-05-25T03:34:18.784992Z

Period
95.44 min
Inclination
53.2131°
Eccentricity
0.0001402
Mean motion
15.08835858 rev/d
Perigee alt
538.8 km
Apogee alt
540.7 km
Semi-major
6,917.9 km
B*
-8.2027e-6
RAAN
190.8808°
Arg perigee
89.0110°
Mean anomaly
271.1043°
Rev number
21,276

§ Raw data

STARLINK-41021 53143U 22083M   26145.14882853 -.00000418  00000+0 -82027-5 0  99962 53143  53.2131 190.8808 0001402  89.0110 271.1043 15.08835858212760

JSON: /api/v1/satellites/53143 · /tle

For live sub-satellite position, see the globe view (requires WebGL).

§ Visibility from observer

Set your observer location to see the next 7 days of passes ≥ 10°. The values pass through the URL so the page stays shareable.

No JS? Fill the form by hand. The geolocation button needs JavaScript.